Key West NAF, FL

5:24 PM EDT on September 26, 2017 (GMT -0400)
Key West Naval Air Station

Weather History for KNQX - December, 2013

Change the Weather History Date:

Saturday, December 14, 2013

  Actual Average Record
Temperature  
Mean Temperature 80 °F -  
Max Temperature 82 °F 77 °F 84 °F (1963)
Min Temperature 77 °F 68 °F 50 °F (1962)
Cooling Degree Days 14    
Growing Degree Days 30 (Base 50)    
Moisture  
Dew Point 72 °F    
Average Humidity 78    
Maximum Humidity 90    
Minimum Humidity 67    
Precipitation  
Precipitation 0.10 in - - ()
Sea Level Pressure  
Sea Level Pressure 30.02 in    
Wind  
Wind Speed 13 mph (SE)    
Max Wind Speed 20 mph    
Max Gust Speed 24 mph    
Visibility 10 miles    
Events Rain    
Averages and records for this station are not official NWS values.
T = Trace of Precipitation, MM = Missing Value Source: NWS Daily Summary

Daily Weather History Graph

Daily Weather History Graph

Search for Another Location

Airport or City:

Trip Planner

Search our weather history database for the weather conditions in past years. The results will help you decide how hot, cold, wet, or windy it might be!

Date:

Astronomy

Dec. 14, 2013 Rise Set
Actual Time 7:02 AM EST 5:40 PM EST
Civil Twilight 6:37 AM EST 6:05 PM EST
Nautical Twilight 6:09 AM EST 6:33 PM EST
Astronomical Twilight 5:41 AM EST 7:01 PM EST
Moon 3:52 PM EST (12/14) 4:33 AM EST (12/14)
Length of Visible Light 11h 27m
Length of Day
10h 37m
Waxing Gibbous, 93% of the Moon is Illuminated
Dec 14
Waxing Gibbous
Dec 17
Full
Dec 25
Last Quarter
Jan 1
New
Jan 7
First Quarter

Hourly Weather History & Observations

Time (EST) Temp. Heat Index Dew Point Humidity Pressure Visibility Wind Dir Wind Speed Gust Speed Precip Events Conditions
12:53 AM 77.0 °F - 71.1 °F 82% 30.05 in 10.0 mi ESE 10.4 mph - N/A   Partly Cloudy
1:53 AM 78.1 °F - 71.1 °F 79% 30.04 in 10.0 mi SE 13.8 mph - N/A   Clear
2:53 AM 78.1 °F - 71.1 °F 79% 30.02 in 10.0 mi ESE 16.1 mph - N/A   Clear
3:53 AM 78.1 °F - 71.1 °F 79% 30.01 in 10.0 mi ESE 15.0 mph - N/A   Clear
4:53 AM 78.1 °F - 71.1 °F 79% 30.01 in 10.0 mi ESE 13.8 mph - N/A   Scattered Clouds
5:53 AM 78.1 °F - 71.1 °F 79% 30.02 in 10.0 mi ESE 13.8 mph - N/A   Partly Cloudy
5:55 AM 78.8 °F - 71.6 °F 78% 30.02 in 10.0 mi ESE 13.8 mph - N/A   Partly Cloudy
6:53 AM 78.1 °F - 71.1 °F 79% 30.03 in 10.0 mi ESE 13.8 mph - N/A   Mostly Cloudy
7:53 AM 79.0 °F - 71.1 °F 77% 30.04 in 10.0 mi ESE 15.0 mph 20.7 mph N/A   Mostly Cloudy
8:53 AM 81.0 °F 84.9 °F 71.1 °F 72% 30.06 in 10.0 mi ESE 15.0 mph - N/A   Mostly Cloudy
9:53 AM 82.0 °F 86.3 °F 71.1 °F 69% 30.06 in 10.0 mi ESE 15.0 mph - N/A   Mostly Cloudy
10:53 AM 82.9 °F 87.5 °F 71.1 °F 67% 30.06 in 10.0 mi SE 19.6 mph 24.2 mph N/A   Mostly Cloudy
11:14 AM 78.8 °F - 71.6 °F 78% 30.06 in 10.0 mi SSE 15.0 mph - N/A   Mostly Cloudy
11:34 AM 80.6 °F 84.6 °F 71.6 °F 74% 30.05 in 7.0 mi SE 12.7 mph 18.4 mph 0.00 in Rain Light Rain
11:46 AM 82.4 °F 87.2 °F 71.6 °F 70% 30.04 in 10.0 mi SE 15.0 mph 21.9 mph 0.00 in   Mostly Cloudy
11:53 AM 82.0 °F 86.7 °F 72.0 °F 71% 30.04 in 10.0 mi SE 16.1 mph 21.9 mph 0.00 in   Mostly Cloudy
12:48 PM 82.4 °F 88.2 °F 73.4 °F 74% 30.01 in 6.0 mi SSE 8.1 mph - 0.00 in Rain Light Rain
12:53 PM 82.9 °F 88.8 °F 73.0 °F 72% 30.00 in 6.0 mi SSE 6.9 mph - 0.00 in Rain Light Rain
1:36 PM 82.4 °F 89.5 °F 75.2 °F 79% 29.98 in 10.0 mi SE 13.8 mph 19.6 mph 0.10 in   Mostly Cloudy
1:53 PM 82.4 °F 89.2 °F 75.0 °F 78% 29.98 in 10.0 mi SE 12.7 mph - 0.10 in   Mostly Cloudy
2:53 PM 82.0 °F 87.9 °F 73.9 °F 76% 29.97 in 10.0 mi SE 13.8 mph - N/A   Mostly Cloudy
3:53 PM 81.0 °F 86.2 °F 73.9 °F 79% 29.97 in 10.0 mi SE 12.7 mph - N/A   Mostly Cloudy
4:53 PM 80.1 °F 84.5 °F 73.9 °F 81% 29.98 in 10.0 mi SE 9.2 mph - N/A   Scattered Clouds
5:53 PM 79.0 °F - 73.0 °F 82% 29.99 in 10.0 mi SE 9.2 mph - N/A   Mostly Cloudy
6:53 PM 79.0 °F - 73.0 °F 82% 30.00 in 10.0 mi SE 8.1 mph - N/A   Scattered Clouds
7:53 PM 78.1 °F - 73.0 °F 84% 30.01 in 10.0 mi SE 8.1 mph - N/A   Scattered Clouds
8:53 PM 78.1 °F - 73.9 °F 87% 30.01 in 10.0 mi SE 9.2 mph - N/A   Scattered Clouds
9:53 PM 77.0 °F - 73.9 °F 90% 30.02 in 10.0 mi SE 9.2 mph - N/A   Scattered Clouds
10:53 PM - - - N/A% 30.02 in 10.0 mi SE 9.2 mph - N/A   Partly Cloudy
11:53 PM - - - N/A% 30.01 in 10.0 mi SSE 9.2 mph - N/A   Clear